Weather in Khizi

Azerbaijan     40°54′41″N   49°04′22″E
temp.,
°C
wind,
m/s
gust,
m/s
humid.,
%
clouds,
%
prec.,
mm/h
press.,
hPa
HPBL,
m
7 may, fri
fri701:00+7sw11891 0.0 101612
04:00+7ssw118687 0.0 101511
07:00+9se1181100 0.0 101568
10:00+13ne3175100 0.0 1016529
13:00+13ne3181100 0.0 1017546
16:00+12nne3186100 0.0 1017404
19:00+12nne118992 0.0 1018137
22:00+9sw1194100 0.0 102011
8 may, sat
sat801:00+10wsw118956 0.0 102011
04:00+9sw228166 0.0 102011
07:00+12s11710 0.0 102151
10:00+17e33600 0.0 1019673
13:00+19ene44580 0.0 1017809
16:00+20sse13530 0.0 1015738
19:00+16ssw12735 0.0 101464
22:00+13ssw33765 0.0 101541
9 may, sun
sun901:00+12ssw558076 0.0 101294
04:00+12sw55780 0.0 101096
07:00+14sw45721 0.0 1008125
10:00+21sse14525 0.0 1007515
13:00+23nne23521 0.0 1006739
16:00+22ne33575 0.0 1006637
19:00+17ne227899 0.0 1007108
22:00+14s1195100 1.2 101391
10 may, mon
mon1001:00+10nnw3597100 4.0 1016326
04:00+8nne3598100 5.1 1018262
07:00+7nnw3992100 0.9 1020771
10:00+6n3588100 1.9 1021534
13:00+6nnw1284100 0.7 1022340
16:00+6nne1291100 1.0 1022321
19:00+8s117775 0.1 1022138
22:00+6sw327244 0.1 102329
11 may, tue
tue1101:00+6wsw32658 0.0 102219
04:00+6sw32633 0.0 102118
07:00+8ssw22645 0.0 102078
10:00+13ene33510 0.0 1019963
13:00+14ene43580 0.0 1017869
16:00+13ne426510 0.0 1017635
19:00+10ene227733 0.0 1018188
22:00+7s018566 0.0 101915